GW0587 Weather Reports


Display with metric or nautical units.
time (UTC)temp
F
wind
direction
speed
MPH
gust
MPH
rain 1hr
in
rain 24hr
in
rain mn
in
humidity
%
barometer
mb
20260509040045 63 0 1.0 5.0 0.00 0.00 0.00 72 1011.6
20260509034541 64 0 0.0 2.0 0.00 0.00 0.00 72 1011.7
20260509033050 64 0 0.0 3.0 0.00 0.00 0.00 71 1011.3
20260509031614 65 0 0.0 0.0 0.00 0.00 0.00 69 1011.2
20260509030045 65 109 0.0 6.0 0.00 0.00 0.00 68 1011.3
20260509024542 66 0 0.0 3.0 0.00 0.00 0.00 66 1011.5
20260509023041 66 0 0.0 2.0 0.00 0.00 0.00 66 1011.6
20260509021547 66 0 0.0 4.0 0.00 0.00 0.00 66 1011.5
20260509020044 66 0 0.0 2.0 0.00 0.00 0.00 64 1011.2
20260509014544 67 0 0.0 0.0 0.00 0.00 0.00 62 1011.1
20260509013047 68 0 0.0 1.0 0.00 0.00 0.00 59 1011.1
20260509011547 69 0 0.0 1.0 0.00 0.00 0.00 57 1011.0
20260509010047 69 0 0.0 3.0 0.00 0.00 0.00 57 1011.1
20260509004552 70 0 0.0 4.0 0.00 0.00 0.00 55 1011.1
20260509003047 71 153 0.0 4.0 0.00 0.00 0.00 53 1011.0
20260509001545 72 0 0.0 4.0 0.00 0.00 0.00 51 1010.9
20260509000053 72 132 0.0 6.0 0.00 0.00 0.00 51 1010.6
20260508234541 73 175 1.0 10.0 0.00 0.00 0.00 51 1010.7
20260508233050 73 0 3.0 7.0 0.00 0.00 0.00 49 1010.8
20260508231550 74 62 0.0 10.0 0.00 0.00 0.00 48 1010.8
20260508230046 75 116 1.0 7.0 0.00 0.00 0.00 47 1010.9
20260508224545 75 167 1.0 12.0 0.00 0.00 0.00 47 1011.1
20260508223042 74 265 1.0 7.0 0.00 0.00 0.00 47 1011.1
20260508221542 75 107 2.0 9.0 0.00 0.00 0.00 46 1011.2
20260508220043 74 153 2.0 11.0 0.00 0.00 0.00 45 1011.2
20260508214556 75 268 0.0 8.0 0.00 0.00 0.00 46 1011.4
20260508213057 75 0 3.0 10.0 0.00 0.00 0.00 46 1011.5
20260508211543 76 340 2.0 11.0 0.00 0.00 0.00 44 1011.6
20260508210049 76 0 1.0 10.0 0.00 0.00 0.00 45 1011.7
20260508204542 76 92 2.0 6.0 0.00 0.00 0.00 40 1011.8
20260508203054 76 161 1.0 6.0 0.00 0.00 0.00 41 1012.0
20260508201601 76 235 2.0 7.0 0.00 0.00 0.00 43 1012.1
20260508200100 75 168 2.0 9.0 0.00 0.00 0.00 41 1012.3
20260508194545 75 62 2.0 6.0 0.00 0.00 0.00 44 1012.5
20260508193041 75 150 1.0 11.0 0.00 0.00 0.00 42 1012.5
20260508191543 75 91 2.0 6.0 0.00 0.00 0.00 43 1012.9
20260508190052 75 65 2.0 7.0 0.00 0.00 0.00 43 1013.0
20260508184548 75 46 1.0 5.0 0.00 0.00 0.00 43 1013.2
20260508183053 74 59 1.0 8.0 0.00 0.00 0.00 44 1013.9
20260508181608 74 250 0.0 3.0 0.00 0.00 0.00 44 1014.4
20260508180052 73 65 2.0 7.0 0.00 0.00 0.00 44 1014.5
20260508174541 74 208 0.0 6.0 0.00 0.00 0.00 44 1014.7
20260508173050 73 178 2.0 6.0 0.00 0.00 0.00 42 1014.9
20260508171544 73 0 2.0 6.0 0.00 0.00 0.00 45 1015.2
20260508170046 72 0 1.0 7.0 0.00 0.00 0.00 46 1015.5
20260508164543 71 198 1.0 6.0 0.00 0.00 0.00 46 1015.8
20260508163040 70 0 1.0 7.0 0.00 0.00 0.00 44 1016.1
20260508161544 70 119 3.0 8.0 0.00 0.00 0.00 45 1016.3
20260508160047 70 100 2.0 7.0 0.00 0.00 0.00 47 1016.3
20260508154553 70 130 1.0 7.0 0.00 0.00 0.00 48 1016.4
20260508153042 69 167 1.0 6.0 0.00 0.00 0.00 51 1016.6
20260508151542 69 85 2.0 8.0 0.00 0.00 0.00 52 1016.8
20260508150046 69 84 0.0 7.0 0.00 0.00 0.00 54 1017.1
20260508144540 68 74 0.0 6.0 0.00 0.00 0.00 53 1017.1
20260508143047 66 154 1.0 8.0 0.00 0.00 0.00 55 1017.2
20260508141550 66 161 1.0 6.0 0.00 0.00 0.00 55 1017.4
20260508140052 66 165 0.0 4.0 0.00 0.00 0.00 56 1017.4
20260508134548 64 0 0.0 3.0 0.00 0.00 0.00 59 1017.2
20260508133049 63 104 0.0 2.0 0.00 0.00 0.00 62 1017.4
20260508131545 61 0 0.0 0.0 0.00 0.00 0.00 67 1017.9
20260508130047 58 0 0.0 0.0 0.00 0.00 0.00 73 1017.5
20260508124543 55 0 0.0 0.0 0.00 0.00 0.00 86 1017.7
20260508123047 52 0 0.0 0.0 0.00 0.00 0.00 93 1017.7
20260508121552 50 0 0.0 0.0 0.00 0.00 0.00 95 1017.7
20260508120057 48 0 0.0 0.0 0.00 0.00 0.00 94 1017.6
20260508114543 47 0 0.0 0.0 0.00 0.00 0.00 93 1017.4
20260508113044 47 0 0.0 0.0 0.00 0.00 0.00 92 1017.3
20260508111556 47 0 0.0 0.0 0.00 0.00 0.00 92 1016.9
20260508110058 47 0 0.0 0.0 0.00 0.00 0.00 91 1017.0
20260508104546 47 0 0.0 0.0 0.00 0.00 0.00 92 1016.7
20260508103055 47 0 0.0 0.0 0.00 0.00 0.00 91 1017.0
20260508101544 47 0 0.0 0.0 0.00 0.00 0.00 91 1016.9
20260508100048 48 0 0.0 0.0 0.00 0.00 0.00 91 1016.9
20260508094604 48 0 0.0 0.0 0.00 0.00 0.00 91 1016.9
20260508093046 48 0 0.0 0.0 0.00 0.00 0.00 91 1016.8
20260508091545 48 0 0.0 0.0 0.00 0.00 0.00 91 1016.9
20260508090053 48 0 0.0 0.0 0.00 0.00 0.00 91 1016.6
20260508084548 49 0 0.0 0.0 0.00 0.00 0.00 90 1016.5
20260508083107 49 0 0.0 0.0 0.00 0.00 0.00 90 1016.5
20260508081547 49 0 0.0 0.0 0.00 0.00 0.00 90 1016.5
20260508080046 49 0 0.0 0.0 0.00 0.00 0.00 90 1016.5
20260508074544 49 0 0.0 0.0 0.00 0.00 0.00 89 1016.7
20260508073043 50 0 0.0 0.0 0.00 0.00 0.00 89 1016.7
20260508071548 50 0 0.0 0.0 0.00 0.00 0.00 88 1016.9
20260508070047 50 0 0.0 0.0 0.00 0.00 0.00 89 1016.8
20260508064551 51 0 0.0 0.0 0.00 0.00 0.00 88 1017.0
20260508063047 51 0 0.0 0.0 0.00 0.00 0.00 88 1017.3
20260508061554 51 0 0.0 0.0 0.00 0.00 0.00 87 1017.2
20260508060051 51 0 0.0 0.0 0.00 0.00 0.00 87 1017.2
20260508054544 52 0 0.0 0.0 0.00 0.00 0.00 86 1017.3
20260508053045 52 0 0.0 0.0 0.00 0.00 0.00 85 1017.2
20260508051550 52 0 0.0 0.0 0.00 0.00 0.00 85 1017.3
20260508050048 52 0 0.0 0.0 0.00 0.00 0.00 84 1017.3
20260508044546 53 0 0.0 0.0 0.00 0.00 0.00 84 1017.2
20260508043053 53 0 0.0 0.0 0.00 0.00 0.00 83 1017.3
20260508041542 53 0 0.0 0.0 0.00 0.00 0.00 81 1017.4